Weather History for Curtin, WE

Change the Weather History Date:

Friday, May 3, 2013

  Actual Average Record
Temperature  
Mean Temperature 84 °F -  
Max Temperature 101 °F - - ()
Min Temperature 66 °F - - ()
Cooling Degree Days 18    
Growing Degree Days 34 (Base 50)    
Moisture  
Dew Point 59 °F    
Average Humidity 52    
Maximum Humidity 94    
Minimum Humidity 13    
Precipitation  
Precipitation 0.00 in - - ()
Sea Level Pressure  
Sea Level Pressure 29.88 in    
Wind  
Wind Speed 4 mph ()    
Max Wind Speed 8 mph    
Max Gust Speed -    
T = Trace of Precipitation, MM = Missing Value Source: Averaged Metar Reports

Daily Weather History Graph

Daily Weather History Graph

Search for Another Location

Airport:

Trip Planner

Search our weather history database for the weather conditions in past years. The results will help you decide how hot, cold, wet, or windy it might be!

Date:

Astronomy

May. 03, 2013 Rise Set
Actual Time 5:58 AM WST 5:24 PM WST
Civil Twilight 5:35 AM WST 5:47 PM WST
Nautical Twilight 5:09 AM WST 6:13 PM WST
Astronomical Twilight 4:44 AM WST 6:38 PM WST
Moon No Moon Rise 12:42 PM WST (5/3)
Length of Visible Light 12h 11m
Length of Day
11h 26m
Last Quarter, 42% of the Moon is Illuminated
May 3
Last Quarter
May 10
New
May 18
First Quarter
May 25
Full
Jun 1
Last Quarter

Hourly Weather History & Observations

Time (WST) Temp. Heat Index Dew Point Humidity Pressure Visibility Wind Dir Wind Speed Gust Speed Precip Events Conditions
12:00 AM 69 °F - 59 °F 64% 29.88 in - South 4.6 mph - -  
12:00 AM 69.8 °F - 59.0 °F 68% 29.89 in - South 4.6 mph - N/A   Unknown
1:00 AM 69.8 °F - 62.6 °F 78% 29.86 in - South 1.2 mph - N/A   Unknown
2:00 AM 69.8 °F - 66.2 °F 88% 29.86 in - South 4.6 mph - N/A   Unknown
3:00 AM 68 °F - 65 °F 89% 29.86 in - South 2.3 mph - -  
3:00 AM 68.0 °F - 66.2 °F 94% 29.86 in - South 2.3 mph - N/A   Unknown
4:00 AM 68.0 °F - 66.2 °F 94% 29.86 in - South 2.3 mph - N/A   Unknown
5:00 AM 66.2 °F - 64.4 °F 94% 29.89 in - SSE 4.6 mph - N/A   Unknown
6:00 AM 69 °F - 67 °F 89% 29.90 in - SSE 5.8 mph - -  
6:00 AM 68.0 °F - 66.2 °F 94% 29.89 in - SSE 5.8 mph - N/A   Unknown
7:00 AM 75.2 °F - 60.8 °F 61% 29.92 in - SSE 4.6 mph - N/A   Unknown
8:00 AM 82.4 °F 82.5 °F 59.0 °F 45% 29.92 in - South 6.9 mph - N/A   Unknown
9:00 AM 89 °F - 56 °F 23% 29.93 in - SSW 6.9 mph - -  
9:00 AM 87.8 °F 86.5 °F 57.2 °F 35% 29.92 in - SSW 6.9 mph - N/A   Unknown
10:00 AM 93.2 °F 91.3 °F 55.4 °F 28% 29.92 in - SSW 6.9 mph - N/A   Unknown
11:00 AM 95.0 °F - 51.8 °F 23% 29.89 in - SSW 8.1 mph - N/A   Unknown
12:00 PM 97 °F - 53 °F 14% 29.86 in - East 5.8 mph - -  
12:00 PM 96.8 °F 94.4 °F 53.6 °F 23% 29.86 in - East 5.8 mph - N/A   Unknown
1:00 PM 98.6 °F - 51.8 °F 21% 29.83 in - NW 3.5 mph - N/A   Unknown
2:00 PM 100.4 °F - 51.8 °F 20% 29.83 in - SE 5.8 mph - N/A   Unknown
3:00 PM 99 °F - 52 °F 13% 29.81 in - East 5.8 mph - -  
3:00 PM 98.6 °F - 51.8 °F 21% 29.80 in - East 5.8 mph - N/A   Unknown
4:00 PM 98.6 °F 96.4 °F 53.6 °F 22% 29.83 in - NNE 4.6 mph - N/A   Unknown
5:00 PM 91.4 °F 90.7 °F 59.0 °F 34% 29.83 in - NNW 3.5 mph - N/A   Unknown
6:00 PM 81 °F - 59 °F 36% 29.86 in - NW 3.5 mph - -  
6:00 PM 80.6 °F 81.1 °F 59.0 °F 48% 29.86 in - NW 3.5 mph - N/A   Unknown
7:00 PM 77.0 °F - 57.2 °F 50% 29.89 in - SW 3.5 mph - N/A   Unknown
8:00 PM 73.4 °F - 57.2 °F 57% 29.92 in - Calm Calm - N/A   Unknown
9:00 PM 72 °F - 59 °F 54% 29.92 in - South 2.3 mph - -  
9:00 PM 71.6 °F - 59.0 °F 64% 29.92 in - South 2.3 mph - N/A   Unknown
10:00 PM 71.6 °F - 60.8 °F 69% 29.92 in - WSW 4.6 mph - N/A   Unknown
11:00 PM 75.2 °F - 59.0 °F 57% 29.92 in - SSW 5.8 mph - N/A   Unknown